Simultaneous Nadir Overpasses (SNOs) Predictions

Prediction of SNOs between FY3D and LANDSAT-8 Satellite Orbit:

Table of predicted SNOs for the next 14.0 days since TLE Epoch: 7/16/2022
Index Date (FY3D) Time (FY3D) Lat,Lon (FY3D) SZA (FY3D ) Date (LANDSAT-8) Time (LANDSAT-8) Lat,Lon (LANDSAT-8) SZA (LANDSAT-8 ) Distance(km) Time Diff (sec)
1 07/16/2022 18:22:48 72.19, -96.75 50.84 07/16/2022 18:24:00 72.13, -96.39 50.77 13.90 72
2 07/16/2022 19:13:28 -71.99, 70.95 129.36 07/16/2022 19:13:30 -72.01, 71.04 129.34 3.69 2
3 07/16/2022 20:04:11 71.76,-121.31 50.41 07/16/2022 20:02:59 71.81,-121.66 50.47 13.52 72
4 07/19/2022 09:49:53 -72.33,-148.77 128.55 07/19/2022 09:51:04 -72.25,-147.94 128.65 29.36 71
5 07/19/2022 10:40:34 72.00, 19.18 51.12 07/19/2022 10:40:34 72.00, 19.26 51.11 2.74 0
6 07/19/2022 11:31:16 -71.90,-173.32 128.98 07/19/2022 11:30:04 -71.89,-173.31 129.00 2.13 72
7 07/22/2022 01:16:58 72.30, 159.55 51.92 07/22/2022 01:18:09 72.17, 160.16 51.78 24.72 71
8 07/22/2022 02:07:36 -71.99, -32.54 128.39 07/22/2022 02:07:40 -72.01, -32.50 128.38 2.41 4
9 07/22/2022 02:58:21 71.87, 135.00 51.49 07/22/2022 02:57:08 71.86, 134.89 51.49 4.00 73
10 07/24/2022 16:44:02 -72.39, 107.64 127.45 07/24/2022 16:45:13 -72.28, 108.58 127.58 34.11 71
11 07/24/2022 17:34:42 72.01, -84.33 52.18 07/24/2022 17:34:43 72.02, -84.24 52.18 3.24 1
12 07/24/2022 18:25:24 -71.91, 83.18 127.92 07/24/2022 18:24:13 -71.91, 83.21 127.92 0.89 71
13 07/27/2022 08:11:05 72.32, 56.03 53.06 07/27/2022 08:12:16 72.22, 56.72 52.95 25.49 71
14 07/27/2022 09:01:43 -72.00,-136.04 127.25 07/27/2022 09:01:48 -72.01,-136.03 127.25 0.75 5
15 07/27/2022 09:52:28 71.89, 31.48 52.64 07/27/2022 09:51:15 71.91, 31.44 52.66 2.32 73
16 07/29/2022 23:38:09 -72.40, 4.12 126.23 07/29/2022 23:39:20 -72.30, 5.10 126.35 34.87 71
17 07/30/2022 00:28:48 71.99, 172.24 53.35 07/30/2022 00:28:51 71.99, 172.18 53.35 2.13 3
18 07/30/2022 01:19:31 -71.93, -20.33 126.71 07/30/2022 01:18:20 -71.94, -20.28 126.70 2.11 71



Historial Predications of SNOs between FY3D and LANDSAT-8
